QPF
0.05 0.06 0.08 0.11 0.11 0.08 0.07 0.08 0.07 0.06 0.05 0.04 0.03 0.04 0.06 0.05 0.04 0.05 0.06 0.06 0.05 0.05 0.05 0.05 0.04 0.04 0.06 0.06 0.07 0.06 0.04 0.06 0.05 0.05 0.05 0.06 0.05 0.05 0.05 0.05 0.04 0.02 0.04
0.04 0.07 0.08 0.10 0.08 0.06 0.05 0.07 0.06 0.05 0.04 0.04 0.04 0.05 0.05 0.05 0.06 0.06 0.05 0.06 0.05 0.04 0.05 0.06 0.06 0.05 0.05 0.06 0.06 0.06 0.05 0.05 0.05 0.05 0.05 0.05 0.07 0.06 0.04 0.04 0.04 0.03 0.04
0.02 0.03 0.06 0.10 0.08 0.06 0.05 0.05 0.05 0.06 0.06 0.05 0.05 0.05 0.03 0.03 0.05 0.08 0.08 0.07 0.06 0.07 0.07 0.11 0.09 0.06 0.06 0.06 0.05 0.06 0.06 0.05 0.03 0.02 0.02 0.02 0.04 0.05 0.05 0.05 0.05 0.04 0.03
0.02 0.01 0.04 0.07 0.08 0.05 0.04 0.05 0.04 0.04 0.05 0.04 0.04 0.04 0.05 0.04 0.06 0.08 0.08 0.06 0.05 0.06 0.07 0.13 0.12 0.06 0.06 0.06 0.06 0.06 0.04 0.03 0.02 0.02 0.01 0.01 0.01 0.04 0.04 0.05 0.06 0.05 0.05
0.02 0.02 0.04 0.05 0.05 0.04 0.04 0.04 0.05 0.07 0.05 0.04 0.04 0.04 0.05 0.04 0.04 0.05 0.06 0.04 0.02 0.03 0.05 0.09 0.13 0.07 0.06 0.07 0.05 0.04 0.03 0.02 0.03 0.02 0.01 0.01 0.01 0.03 0.04 0.05 0.05 0.06 0.05
0.01 0.03 0.04 0.04 0.05 0.04 0.03 0.04 0.07 0.08 0.07 0.07 0.05 0.04 0.05 0.05 0.04 0.04 0.05 0.04 0.02 0.02 0.03 0.05 0.07 0.07 0.07 0.06 0.05 0.04 0.03 0.02 0.01 0.01 0.01 0.01 0.02 0.04 0.04 0.06 0.06 0.07 0.07
0.02 0.03 0.03 0.03 0.05 0.04 0.03 0.04 0.05 0.05 0.06 0.07 0.07 0.06 0.06 0.06 0.06 0.06 0.05 0.03 0.02 0.03 0.03 0.07 0.10 0.07 0.07 0.06 0.06 0.06 0.04 0.01 0.00 0.00 0.01 0.01 0.03 0.05 0.04 0.06 0.07 0.08 0.09
0.02 0.02 0.01 0.03 0.04 0.04 0.04 0.05 0.05 0.06 0.06 0.06 0.06 0.07 0.06 0.06 0.06 0.05 0.04 0.03 0.03 0.03 0.04 0.05 0.08 0.06 0.05 0.05 0.06 0.07 0.05 0.02 0.01 0.00 0.00 0.01 0.05 0.06 0.05 0.06 0.07 0.08 0.09
0.01 0.01 0.01 0.02 0.03 0.04 0.04 0.07 0.08 0.07 0.06 0.05 0.05 0.04 0.04 0.04 0.04 0.03 0.04 0.04 0.05 0.04 0.03 0.04 0.05 0.06 0.05 0.05 0.06 0.06 0.05 0.02 0.01 0.01 0.01 0.02 0.08 0.05 0.05 0.06 0.06 0.07 0.06
0.01 0.01 0.01 0.01 0.01 0.01 0.01 0.03 0.05 0.05 0.05 0.05 0.04 0.04 0.04 0.04 0.03 0.04 0.04 0.07 0.06 0.04 0.04 0.04 0.05 0.07 0.07 0.06 0.05 0.04 0.04 0.01 0.01 0.01 0.02 0.05 0.11 0.10 0.09 0.09 0.07 0.07 0.06
0.01 0.01 0.01 0.01 0.01 0.01 0.01 0.01 0.02 0.02 0.03 0.03 0.03 0.03 0.02 0.01 0.01 0.03 0.03 0.04 0.06 0.06 0.05 0.04 0.05 0.06 0.06 0.06 0.06 0.03 0.01 0.00 0.00 0.01 0.03 0.07 0.11 0.13 0.11 0.10 0.06 0.05 0.05
0.01 0.01 0.01 0.01 0.01 0.00 0.00 0.00 0.00 0.00 0.01 0.01 0.00 0.00 0.01 0.01 0.01 0.02 0.03 0.05 0.05 0.05 0.04 0.03 0.03 0.03 0.03 0.02 0.03 0.02 0.00 0.00 0.00 0.01 0.03 0.07 0.10 0.13 0.09 0.07 0.04 0.03 0.03
0.01 0.01 0.02 0.02 0.02 0.01 0.01 0.00 0.00 0.00 0.01 0.01 0.01 0.00 0.00 0.01 0.01 0.01 0.01 0.02 0.01 0.02 0.01 0.01 0.01 0.02 0.02 0.01 0.01 0.01 0.01 0.01 0.01 0.01 0.04 0.09 0.14 0.13 0.10 0.07 0.06 0.05 0.04
0.02 0.02 0.02 0.02 0.02 0.01 0.01 0.00 0.00 0.00 0.00 0.00 0.00 0.00 0.00 0.00 0.00 0.00 0.00 0.01 0.01 0.01 0.01 0.01 0.01 0.01 0.01 0.01 0.00 0.01 0.01 0.01 0.01 0.02 0.05 0.10 0.11 0.13 0.14 0.12 0.08 0.06 0.05
0.06 0.04 0.03 0.02 0.02 0.01 0.02 0.01 0.01 0.01 0.00 0.00 0.01 0.01 0.00 0.01 0.01 0.01 0.01 0.02 0.02 0.02 0.01 0.01 0.01 0.01 0.01 0.01 0.01 0.01 0.00 0.00 0.01 0.03 0.05 0.07 0.09 0.12 0.14 0.14 0.10 0.07 0.05
0.05 0.06 0.04 0.04 0.02 0.01 0.02 0.01 0.01 0.00 0.00 0.00 0.02 0.02 0.01 0.01 0.01 0.01 0.01 0.01 0.02 0.01 0.01 0.02 0.02 0.01 0.01 0.01 0.00 0.01 0.00 0.00 0.01 0.02 0.02 0.03 0.05 0.09 0.11 0.13 0.10 0.07 0.06
0.04 0.05 0.05 0.05 0.04 0.02 0.01 0.01 0.01 0.01 0.01 0.01 0.02 0.01 0.01 0.01 0.01 0.01 0.01 0.01 0.01 0.01 0.01 0.02 0.01 0.00 0.00 0.00 0.01 0.01 0.01 0.02 0.02 0.01 0.01 0.01 0.01 0.04 0.06 0.08 0.09 0.07 0.06
0.05 0.04 0.03 0.03 0.04 0.03 0.02 0.02 0.01 0.01 0.01 0.01 0.01 0.01 0.00 0.01 0.01 0.01 0.01 0.01 0.01 0.01 0.01 0.01 0.01 0.01 0.00 0.01 0.01 0.01 0.02 0.03 0.02 0.01 0.01 0.01 0.01 0.01 0.02 0.04 0.06 0.07 0.06
0.03 0.04 0.03 0.02 0.03 0.03 0.02 0.02 0.01 0.01 0.01 0.01 0.01 0.01 0.00 0.00 0.00 0.01 0.01 0.01 0.01 0.01 0.01 0.02 0.01 0.01 0.01 0.02 0.02 0.02 0.03 0.03 0.01 0.01 0.00 0.00 0.00 0.00 0.01 0.02 0.04 0.06 0.07
0.01 0.03 0.04 0.02 0.03 0.04 0.03 0.02 0.01 0.00 0.01 0.01 0.00 0.00 0.00 0.00 0.01 0.01 0.01 0.01 0.02 0.01 0.01 0.01 0.01 0.01 0.02 0.03 0.03 0.04 0.03 0.01 0.00 0.00 0.00 0.00 0.01 0.01 0.01 0.02 0.02 0.04 0.06
0.01 0.02 0.03 0.03 0.02 0.03 0.03 0.02 0.01 0.00 0.00 0.00 0.00 0.00 0.00 0.00 0.00 0.01 0.01 0.01 0.01 0.02 0.01 0.01 0.02 0.03 0.03 0.03 0.04 0.03 0.02 0.01 0.01 0.00 0.00 0.00 0.00 0.01 0.02 0.02 0.02 0.02 0.03
0.02 0.02 0.02 0.02 0.02 0.02 0.03 0.02 0.02 0.01 0.01 0.01 0.00 0.00 0.00 0.00 0.00 0.00 0.00 0.01 0.01 0.01 0.01 0.01 0.02 0.02 0.03 0.02 0.01 0.01 0.01 0.01 0.01 0.01 0.00 0.00 0.00 0.01 0.01 0.01 0.02 0.02 0.01
0.01 0.01 0.02 0.03 0.02 0.03 0.04 0.03 0.02 0.01 0.01 0.01 0.00 0.00 0.00 0.00 0.00 0.00 0.00 0.00 0.01 0.01 0.01 0.01 0.02 0.01 0.01 0.01 0.01 0.01 0.01 0.01 0.02 0.01 0.00 0.01 0.01 0.01 0.01 0.01 0.02 0.02 0.01
0.01 0.01 0.01 0.02 0.03 0.03 0.04 0.04 0.04 0.04 0.02 0.02 0.01 0.00 0.00 0.00 0.00 0.00 0.00 0.01 0.01 0.02 0.01 0.01 0.01 0.02 0.01 0.01 0.01 0.01 0.01 0.01 0.01 0.02 0.01 0.00 0.00 0.01 0.01 0.02 0.03 0.04 0.03
0.01 0.01 0.01 0.02 0.02 0.03 0.03 0.03 0.03 0.04 0.04 0.03 0.02 0.01 0.01 0.00 0.00 0.00 0.00 0.00 0.01 0.01 0.01 0.01 0.01 0.01 0.01 0.01 0.01 0.02 0.02 0.02 0.01 0.01 0.01 0.00 0.00 0.01 0.01 0.01 0.02 0.03 0.04
0.01 0.01 0.01 0.02 0.02 0.02 0.03 0.03 0.02 0.02 0.03 0.03 0.02 0.01 0.01 0.00 0.00 0.00 0.01 0.01 0.01 0.01 0.01 0.02 0.02 0.02 0.02 0.02 0.02 0.03 0.03 0.02 0.01 0.01 0.01 0.01 0.00 0.00 0.00 0.01 0.01 0.02 0.02
MSLP
1013.90 1013.26 1012.65 1012.17 1011.86 1011.73 1011.76 1011.88 1012.04 1012.17 1012.24 1012.25 1012.21 1012.17 1012.16 1012.18 1012.25 1012.33 1012.39 1012.42 1012.39 1012.31 1012.21 1012.11 1012.03 1011.99 1012.00 1012.03 1012.06 1012.07 1012.04 1011.99 1011.93 1011.88 1011.88 1011.92 1012.02 1012.14 1012.28 1012.39 1012.47 1012.52 1012.56
1014.16 1013.52 1012.91 1012.43 1012.12 1011.98 1011.99 1012.08 1012.21 1012.31 1012.36 1012.36 1012.34 1012.32 1012.33 1012.38 1012.47 1012.58 1012.65 1012.69 1012.66 1012.58 1012.47 1012.36 1012.28 1012.24 1012.25 1012.28 1012.31 1012.33 1012.31 1012.27 1012.21 1012.17 1012.16 1012.19 1012.26 1012.36 1012.46 1012.55 1012.62 1012.66 1012.71
1014.39 1013.77 1013.19 1012.73 1012.44 1012.30 1012.29 1012.37 1012.46 1012.53 1012.55 1012.53 1012.50 1012.48 1012.50 1012.57 1012.67 1012.77 1012.85 1012.88 1012.85 1012.76 1012.64 1012.53 1012.45 1012.42 1012.44 1012.49 1012.54 1012.58 1012.59 1012.57 1012.53 1012.49 1012.48 1012.50 1012.55 1012.62 1012.69 1012.76 1012.81 1012.85 1012.90
1014.60 1014.02 1013.49 1013.08 1012.81 1012.69 1012.69 1012.74 1012.80 1012.83 1012.81 1012.76 1012.70 1012.66 1012.67 1012.73 1012.82 1012.92 1012.99 1013.01 1012.96 1012.87 1012.76 1012.66 1012.60 1012.59 1012.63 1012.70 1012.78 1012.85 1012.89 1012.90 1012.89 1012.87 1012.86 1012.87 1012.91 1012.95 1013.00 1013.04 1013.08 1013.12 1013.17
1014.76 1014.25 1013.79 1013.44 1013.23 1013.14 1013.13 1013.17 1013.19 1013.17 1013.11 1013.01 1012.92 1012.85 1012.84 1012.88 1012.96 1013.04 1013.10 1013.10 1013.06 1012.98 1012.88 1012.80 1012.76 1012.78 1012.86 1012.97 1013.08 1013.19 1013.26 1013.30 1013.31 1013.31 1013.30 1013.31 1013.33 1013.35 1013.37 1013.40 1013.43 1013.46 1013.52
1014.87 1014.43 1014.05 1013.79 1013.63 1013.58 1013.58 1013.60 1013.58 1013.52 1013.41 1013.27 1013.14 1013.05 1013.02 1013.05 1013.11 1013.17 1013.22 1013.23 1013.19 1013.12 1013.05 1013.00 1013.00 1013.06 1013.17 1013.32 1013.47 1013.60 1013.70 1013.76 1013.79 1013.79 1013.78 1013.77 1013.77 1013.78 1013.79 1013.80 1013.82 1013.85 1013.92
1014.93 1014.57 1014.28 1014.09 1013.99 1013.97 1013.98 1013.98 1013.93 1013.83 1013.68 1013.51 1013.36 1013.26 1013.22 1013.24 1013.30 1013.36 1013.41 1013.42 1013.40 1013.35 1013.31 1013.30 1013.34 1013.45 1013.59 1013.77 1013.94 1014.09 1014.20 1014.26 1014.28 1014.27 1014.25 1014.22 1014.20 1014.19 1014.18 1014.18 1014.20 1014.23 1014.29
1014.96 1014.66 1014.44 1014.32 1014.28 1014.28 1014.29 1014.27 1014.20 1014.07 1013.90 1013.73 1013.58 1013.49 1013.46 1013.50 1013.57 1013.64 1013.70 1013.72 1013.72 1013.70 1013.69 1013.72 1013.81 1013.94 1014.12 1014.31 1014.49 1014.64 1014.73 1014.77 1014.76 1014.72 1014.66 1014.60 1014.55 1014.51 1014.49 1014.48 1014.49 1014.53 1014.59
1014.97 1014.72 1014.56 1014.49 1014.48 1014.50 1014.51 1014.47 1014.38 1014.24 1014.07 1013.92 1013.80 1013.75 1013.76 1013.83 1013.93 1014.02 1014.10 1014.14 1014.15 1014.16 1014.18 1014.25 1014.36 1014.52 1014.72 1014.91 1015.09 1015.21 1015.26 1015.25 1015.19 1015.10 1014.99 1014.88 1014.79 1014.72 1014.67 1014.65 1014.66 1014.69 1014.76
1014.98 1014.77 1014.65 1014.62 1014.63 1014.65 1014.65 1014.60 1014.50 1014.36 1014.22 1014.10 1014.05 1014.05 1014.13 1014.25 1014.38 1014.51 1014.60 1014.65 1014.68 1014.70 1014.74 1014.83 1014.97 1015.14 1015.34 1015.53 1015.68 1015.77 1015.77 1015.70 1015.57 1015.41 1015.23 1015.06 1014.92 1014.81 1014.74 1014.70 1014.69 1014.73 1014.79
1015.02 1014.85 1014.76 1014.73 1014.75 1014.76 1014.74 1014.68 1014.58 1014.46 1014.36 1014.31 1014.32 1014.40 1014.55 1014.72 1014.90 1015.05 1015.16 1015.23 1015.26 1015.29 1015.34 1015.44 1015.59 1015.77 1015.97 1016.14 1016.26 1016.31 1016.26 1016.12 1015.92 1015.68 1015.43 1015.19 1014.99 1014.83 1014.72 1014.66 1014.65 1014.67 1014.74
1015.11 1014.96 1014.88 1014.86 1014.87 1014.86 1014.82 1014.75 1014.66 1014.57 1014.52 1014.53 1014.62 1014.78 1014.99 1015.23 1015.45 1015.63 1015.75 1015.82 1015.86 1015.89 1015.95 1016.05 1016.20 1016.38 1016.57 1016.73 1016.83 1016.83 1016.73 1016.54 1016.27 1015.96 1015.64 1015.33 1015.07 1014.86 1014.71 1014.62 1014.59 1014.60 1014.66
1015.25 1015.11 1015.04 1015.02 1015.00 1014.97 1014.92 1014.84 1014.75 1014.69 1014.69 1014.76 1014.93 1015.16 1015.44 1015.73 1015.99 1016.20 1016.33 1016.41 1016.45 1016.48 1016.53 1016.64 1016.79 1016.97 1017.15 1017.30 1017.38 1017.36 1017.22 1016.98 1016.67 1016.30 1015.92 1015.55 1015.24 1014.98 1014.78 1014.66 1014.59 1014.59 1014.62
1015.41 1015.29 1015.22 1015.19 1015.15 1015.10 1015.03 1014.94 1014.87 1014.84 1014.87 1015.00 1015.22 1015.51 1015.84 1016.17 1016.47 1016.71 1016.86 1016.95 1017.01 1017.05 1017.11 1017.21 1017.37 1017.55 1017.73 1017.87 1017.94 1017.90 1017.75 1017.49 1017.15 1016.74 1016.32 1015.92 1015.55 1015.24 1015.01 1014.84 1014.73 1014.69 1014.70
1015.60 1015.48 1015.41 1015.36 1015.31 1015.24 1015.15 1015.07 1015.00 1014.99 1015.06 1015.22 1015.47 1015.80 1016.17 1016.54 1016.87 1017.14 1017.33 1017.45 1017.53 1017.59 1017.68 1017.79 1017.95 1018.13 1018.31 1018.45 1018.51 1018.48 1018.33 1018.07 1017.73 1017.31 1016.87 1016.44 1016.04 1015.69 1015.41 1015.19 1015.04 1014.95 1014.92
1015.77 1015.66 1015.58 1015.52 1015.45 1015.38 1015.29 1015.21 1015.15 1015.16 1015.24 1015.42 1015.69 1016.04 1016.42 1016.81 1017.18 1017.48 1017.72 1017.89 1018.02 1018.13 1018.24 1018.38 1018.54 1018.73 1018.90 1019.04 1019.11 1019.09 1018.96 1018.73 1018.39 1018.00 1017.56 1017.12 1016.70 1016.32 1016.00 1015.73 1015.53 1015.38 1015.28
1015.93 1015.82 1015.73 1015.66 1015.59 1015.52 1015.44 1015.37 1015.33 1015.35 1015.45 1015.62 1015.89 1016.23 1016.62 1017.02 1017.41 1017.76 1018.05 1018.29 1018.48 1018.65 1018.81 1018.97 1019.14 1019.33 1019.50 1019.64 1019.72 1019.71 1019.61 1019.41 1019.12 1018.76 1018.35 1017.92 1017.50 1017.10 1016.73 1016.42 1016.15 1015.94 1015.76
1016.07 1015.96 1015.87 1015.80 1015.73 1015.68 1015.62 1015.58 1015.57 1015.61 1015.70 1015.86 1016.11 1016.42 1016.79 1017.19 1017.60 1017.99 1018.35 1018.65 1018.92 1019.15 1019.36 1019.55 1019.74 1019.92 1020.08 1020.21 1020.30 1020.31 1020.24 1020.09 1019.86 1019.55 1019.19 1018.79 1018.37 1017.97 1017.58 1017.22 1016.89 1016.60 1016.35
1016.21 1016.10 1016.01 1015.94 1015.90 1015.88 1015.86 1015.87 1015.89 1015.94 1016.03 1016.18 1016.39 1016.66 1017.00 1017.38 1017.79 1018.21 1018.62 1018.99 1019.33 1019.62 1019.88 1020.09 1020.29 1020.46 1020.61 1020.73 1020.82 1020.85 1020.83 1020.73 1020.57 1020.33 1020.02 1019.67 1019.29 1018.89 1018.48 1018.09 1017.71 1017.36 1017.03
1016.36 1016.25 1016.17 1016.12 1016.11 1016.13 1016.17 1016.23 1016.30 1016.38 1016.47 1016.60 1016.76 1016.98 1017.27 1017.62 1018.02 1018.45 1018.89 1019.32 1019.71 1020.05 1020.34 1020.57 1020.77 1020.93 1021.06 1021.17 1021.25 1021.31 1021.33 1021.30 1021.21 1021.05 1020.83 1020.54 1020.20 1019.82 1019.42 1019.01 1018.59 1018.19 1017.80
1016.54 1016.44 1016.36 1016.34 1016.36 1016.43 1016.54 1016.66 1016.79 1016.90 1017.01 1017.11 1017.24 1017.41 1017.64 1017.93 1018.30 1018.72 1019.17 1019.62 1020.04 1020.41 1020.72 1020.96 1021.14 1021.28 1021.40 1021.50 1021.59 1021.67 1021.74 1021.78 1021.77 1021.70 1021.57 1021.35 1021.08 1020.74 1020.36 1019.95 1019.52 1019.08 1018.65
1016.74 1016.65 1016.59 1016.58 1016.64 1016.77 1016.94 1017.13 1017.32 1017.48 1017.61 1017.71 1017.80 1017.92 1018.09 1018.33 1018.64 1019.03 1019.46 1019.91 1020.33 1020.70 1021.00 1021.24 1021.40 1021.52 1021.62 1021.71 1021.82 1021.93 1022.05 1022.16 1022.24 1022.26 1022.22 1022.10 1021.89 1021.61 1021.27 1020.88 1020.46 1020.01 1019.56
1016.95 1016.87 1016.81 1016.83 1016.92 1017.09 1017.32 1017.58 1017.83 1018.04 1018.20 1018.31 1018.38 1018.46 1018.58 1018.77 1019.03 1019.36 1019.76 1020.17 1020.57 1020.92 1021.20 1021.41 1021.56 1021.66 1021.74 1021.83 1021.95 1022.10 1022.27 1022.45 1022.61 1022.73 1022.77 1022.74 1022.61 1022.40 1022.11 1021.76 1021.37 1020.94 1020.50
1017.13 1017.07 1017.02 1017.04 1017.14 1017.35 1017.63 1017.94 1018.25 1018.52 1018.72 1018.84 1018.92 1018.99 1019.07 1019.20 1019.41 1019.69 1020.03 1020.40 1020.76 1021.07 1021.32 1021.50 1021.62 1021.71 1021.78 1021.88 1022.01 1022.19 1022.41 1022.65 1022.88 1023.08 1023.21 1023.25 1023.20 1023.06 1022.83 1022.53 1022.18 1021.79 1021.38
1017.28 1017.22 1017.17 1017.19 1017.30 1017.52 1017.82 1018.17 1018.53 1018.85 1019.09 1019.25 1019.35 1019.42 1019.49 1019.59 1019.76 1019.99 1020.28 1020.60 1020.91 1021.18 1021.39 1021.54 1021.64 1021.71 1021.79 1021.89 1022.04 1022.24 1022.50 1022.78 1023.06 1023.31 1023.50 1023.61 1023.63 1023.55 1023.39 1023.15 1022.85 1022.50 1022.13
1017.37 1017.32 1017.27 1017.27 1017.37 1017.58 1017.89 1018.27 1018.65 1019.01 1019.29 1019.50 1019.63 1019.72 1019.79 1019.89 1020.04 1020.24 1020.49 1020.76 1021.02 1021.25 1021.43 1021.56 1021.65 1021.71 1021.78 1021.89 1022.05 1022.27 1022.54 1022.84 1023.15 1023.44 1023.66 1023.82 1023.88 1023.85 1023.74 1023.56 1023.31 1023.02 1022.70
Thickness
5763 5766 5767 5768 5768 5768 5768 5767 5767 5767 5767 5766 5766 5765 5765 5764 5764 5764 5763 5763 5763 5763 5763 5763 5763 5763 5762 5762 5762 5762 5761 5761 5761 5761 5762 5762 5763 5763 5764 5764 5764 5765 5765
5764 5765 5766 5766 5766 5766 5766 5766 5765 5765 5765 5764 5764 5763 5763 5762 5762 5761 5761 5761 5761 5761 5761 5761 5761 5760 5760 5759 5759 5759 5758 5758 5758 5758 5758 5759 5760 5760 5761 5761 5762 5762 5762
5764 5764 5764 5764 5764 5764 5764 5764 5763 5763 5762 5761 5761 5761 5760 5759 5759 5758 5758 5758 5758 5758 5758 5760 5759 5758 5757 5756 5756 5755 5755 5755 5754 5754 5754 5755 5756 5757 5758 5758 5759 5759 5759
5762 5761 5761 5762 5762 5762 5761 5761 5761 5760 5759 5759 5758 5757 5757 5756 5756 5755 5755 5755 5754 5754 5754 5755 5755 5754 5754 5753 5752 5752 5751 5751 5751 5750 5750 5751 5752 5753 5754 5755 5755 5755 5755
5759 5759 5759 5759 5759 5759 5759 5758 5758 5757 5756 5755 5755 5754 5753 5753 5752 5752 5752 5751 5751 5751 5751 5750 5750 5750 5750 5749 5749 5748 5748 5747 5746 5746 5747 5747 5748 5749 5750 5751 5751 5751 5751
5756 5756 5756 5756 5756 5756 5756 5755 5755 5754 5753 5752 5751 5750 5750 5749 5749 5748 5748 5748 5748 5748 5748 5747 5747 5747 5746 5746 5745 5745 5744 5743 5743 5743 5743 5744 5744 5745 5746 5747 5747 5747 5747
5753 5753 5753 5753 5753 5753 5752 5752 5751 5750 5749 5748 5747 5747 5746 5746 5745 5745 5744 5744 5744 5744 5743 5744 5743 5743 5742 5742 5741 5741 5740 5739 5739 5739 5740 5740 5741 5742 5742 5743 5743 5743 5743
5750 5750 5749 5749 5749 5749 5749 5748 5748 5747 5746 5745 5744 5743 5742 5742 5741 5741 5740 5740 5740 5740 5739 5740 5739 5739 5738 5738 5737 5737 5736 5736 5735 5736 5736 5737 5737 5738 5738 5738 5738 5738 5738
5746 5746 5746 5746 5745 5745 5745 5744 5744 5743 5742 5741 5740 5739 5739 5738 5737 5736 5736 5736 5736 5736 5736 5736 5735 5735 5734 5733 5733 5732 5731 5731 5731 5731 5732 5733 5733 5734 5734 5733 5733 5733 5734
5742 5742 5742 5741 5741 5741 5741 5740 5740 5739 5738 5737 5736 5735 5734 5734 5733 5732 5732 5732 5732 5732 5732 5732 5731 5731 5730 5729 5728 5727 5727 5727 5727 5727 5728 5728 5729 5730 5729 5729 5728 5729 5729
5737 5737 5737 5738 5737 5737 5737 5736 5736 5735 5733 5732 5731 5731 5730 5729 5729 5728 5728 5728 5728 5728 5728 5727 5727 5726 5725 5724 5723 5723 5722 5722 5723 5723 5724 5724 5725 5725 5725 5724 5724 5724 5725
5731 5733 5734 5734 5733 5733 5733 5732 5731 5730 5729 5728 5728 5727 5726 5726 5725 5725 5724 5724 5724 5724 5723 5723 5722 5721 5720 5719 5718 5718 5718 5718 5718 5719 5719 5720 5721 5721 5721 5721 5721 5721 5721
5729 5730 5730 5730 5730 5729 5728 5728 5727 5726 5725 5725 5724 5723 5723 5722 5721 5721 5720 5719 5719 5719 5719 5718 5717 5716 5715 5714 5713 5713 5713 5713 5713 5714 5715 5716 5716 5717 5717 5717 5717 5717 5716
5726 5727 5727 5727 5726 5725 5725 5724 5723 5723 5722 5721 5721 5720 5720 5718 5717 5716 5716 5715 5715 5715 5714 5713 5712 5711 5710 5709 5709 5708 5708 5708 5708 5709 5710 5710 5711 5712 5712 5713 5713 5713 5712
5724 5724 5724 5725 5723 5722 5721 5720 5720 5719 5718 5718 5718 5717 5716 5715 5714 5712 5712 5711 5710 5710 5710 5709 5707 5706 5705 5705 5704 5703 5703 5703 5703 5703 5704 5705 5706 5707 5707 5708 5708 5708 5707
5721 5721 5722 5721 5720 5719 5718 5717 5716 5716 5715 5715 5715 5714 5713 5712 5711 5709 5708 5707 5706 5706 5705 5704 5703 5701 5700 5699 5698 5698 5698 5698 5698 5698 5699 5699 5700 5701 5702 5703 5703 5703 5703
5719 5719 5719 5719 5717 5716 5715 5714 5714 5713 5712 5712 5711 5711 5710 5709 5708 5706 5705 5703 5702 5702 5701 5700 5698 5697 5696 5694 5693 5693 5692 5692 5692 5693 5693 5694 5694 5695 5696 5697 5698 5698 5698
5718 5717 5717 5717 5715 5713 5713 5711 5710 5710 5709 5709 5708 5707 5707 5706 5705 5703 5701 5700 5699 5698 5697 5695 5693 5692 5689 5688 5687 5687 5687 5687 5687 5687 5688 5688 5689 5689 5690 5691 5692 5692 5693
5716 5714 5714 5714 5712 5711 5710 5708 5707 5707 5706 5706 5705 5704 5703 5703 5701 5700 5698 5696 5695 5694 5692 5691 5689 5687 5684 5683 5682 5682 5681 5681 5681 5681 5682 5682 5683 5683 5684 5685 5686 5687 5687
5714 5712 5711 5711 5710 5709 5707 5705 5704 5703 5703 5702 5702 5701 5700 5699 5698 5697 5695 5693 5692 5690 5688 5686 5684 5682 5680 5679 5679 5676 5675 5675 5675 5675 5676 5676 5677 5678 5678 5679 5680 5681 5682
5711 5709 5708 5707 5706 5705 5703 5701 5699 5698 5698 5698 5698 5697 5697 5696 5695 5694 5692 5690 5689 5687 5684 5683 5680 5678 5675 5675 5673 5670 5669 5670 5670 5669 5670 5670 5671 5672 5673 5673 5674 5675 5676
5708 5707 5706 5705 5704 5703 5702 5700 5698 5696 5695 5695 5695 5694 5694 5693 5692 5691 5689 5687 5686 5683 5681 5679 5677 5674 5672 5671 5668 5665 5662 5661 5663 5664 5664 5665 5665 5666 5666 5667 5668 5669 5670
5706 5705 5705 5703 5702 5701 5700 5698 5695 5693 5692 5690 5690 5690 5690 5690 5689 5688 5687 5685 5683 5681 5678 5677 5675 5673 5669 5667 5667 5664 5659 5656 5656 5657 5658 5658 5659 5660 5660 5661 5662 5663 5664
5706 5705 5704 5702 5700 5699 5698 5695 5692 5689 5687 5687 5687 5687 5687 5687 5686 5686 5684 5683 5681 5679 5676 5675 5674 5672 5669 5665 5664 5663 5661 5659 5654 5651 5652 5653 5653 5654 5654 5655 5656 5657 5658
5705 5703 5702 5700 5698 5697 5696 5694 5691 5687 5686 5685 5684 5683 5683 5684 5683 5683 5682 5680 5678 5676 5675 5673 5671 5670 5667 5665 5662 5659 5657 5655 5654 5650 5646 5646 5647 5648 5649 5649 5650 5651 5652
5703 5701 5699 5697 5695 5694 5693 5691 5689 5686 5684 5682 5681 5680 5679 5679 5679 5679 5678 5677 5675 5674 5672 5671 5669 5667 5665 5663 5661 5659 5656 5654 5651 5648 5644 5641 5641 5642 5643 5644 5645 5646 5647